Location: ????????
(56.1167°N, 38.6333°E)
Time: 20:43:30
(UTC+00:00)

Cosmos 1140 Rocket - Pass Details

Date: 18 November 2025
Orbit: 740 x 761 km, 74.1° (Epoch: 14 December)

Event Time Altitude Azimuth Distance (km) Brightness Sun altitude
Rises 15:14:36 0° 216° (SW) 3,198 7.4 -16.5°
Reaches altitude 10° 15:16:59 10° 219° (SW) 2,274 6.6 -16.8°
Maximum altitude 15:22:06 66° 302° (WNW) 818 3.8 -17.6°
Enters shadow 15:26:45 13° 24° (NNE) 2,085 5.4 -18.2°
